Weather History for North Myrtle Beach, SC

Change the Weather History Date:

Thursday, December 13, 2012

  Actual Average Record
Temperature  
Mean Temperature 46 °F 49 °F  
Max Temperature 50 °F 59 °F 74 °F (2001)
Min Temperature 42 °F 39 °F 24 °F (1950)
Degree Days  
Heating Degree Days 19 16  
Month to date heating degree days 92 189  
Since 1 July heating degree days 590 550  
Cooling Degree Days 0 0  
Month to date cooling degree days 0 0  
Year to date cooling degree days 2096 1899  
Moisture  
Dew Point 41 °F    
Average Humidity 85    
Maximum Humidity 96    
Minimum Humidity 74    
Precipitation  
Precipitation 0.04 in 0.13 in 0.66 in (2002)
Month to date precipitation 0.64 1.56  
Year to date precipitation 36.20 50.11  
Sea Level Pressure  
Sea Level Pressure 30.25 in    
Wind  
Wind Speed 10 mph (NNE)    
Max Wind Speed 22 mph    
Max Gust Speed 29 mph    
Visibility 9 miles    
Events Rain    
T = Trace of Precipitation, MM = Missing Value Source: NWS Daily Summary

Daily Weather History Graph

Daily Weather History Graph

Search for Another Location

Airport:

Trip Planner

Search our weather history database for the weather conditions in past years. The results will help you decide how hot, cold, wet, or windy it might be!

Date:

Astronomy

Dec. 13, 2012 Rise Set
Actual Time 7:11 AM EST 5:07 PM EST
Civil Twilight 6:43 AM EST 5:34 PM EST
Nautical Twilight 6:12 AM EST 6:06 PM EST
Astronomical Twilight 5:42 AM EST 6:36 PM EST
Moon 7:18 AM EST (12/13) 5:46 PM EST (12/13)
Length of Visible Light 10h 51m
Length of Day
9h 55m
New Moon, 0% of the Moon is Illuminated
Dec 13
New Moon
Dec 20
First Quarter
Dec 28
Full
Jan 4
Last Quarter
Jan 11
New

Hourly Weather History & Observations

Time (EST) Temp. Windchill Dew Point Humidity Pressure Visibility Wind Dir Wind Speed Gust Speed Precip Events Conditions
12:12 AM 42.8 °F 35.8 °F 41.0 °F 93% 30.21 in 10.0 mi NE 13.8 mph 20.7 mph 0.00 in Rain Light Rain
12:53 AM 43.0 °F 34.5 °F 39.9 °F 89% 30.15 in 10.0 mi ENE 19.6 mph 28.8 mph 0.04 in Rain Light Rain
1:21 AM 42.8 °F 34.8 °F 41.0 °F 93% 30.13 in 10.0 mi NE 17.3 mph 26.5 mph 0.00 in Rain Light Rain
1:31 AM 42.8 °F 35.4 °F 41.0 °F 93% 30.14 in 10.0 mi NE 15.0 mph - 0.00 in   Overcast
1:53 AM 43.0 °F 36.8 °F 41.0 °F 93% 30.18 in 10.0 mi NNW 11.5 mph - 0.00 in Rain Light Rain
2:53 AM 43.0 °F 37.7 °F 41.0 °F 93% 30.19 in 10.0 mi North 9.2 mph - 0.00 in   Overcast
3:53 AM 42.1 °F 35.2 °F 39.9 °F 92% 30.17 in 10.0 mi North 12.7 mph 19.6 mph N/A   Overcast
4:53 AM 42.1 °F 34.9 °F 39.9 °F 92% 30.19 in 10.0 mi NNE 13.8 mph 20.7 mph N/A   Overcast
5:53 AM 42.1 °F 36.1 °F 39.9 °F 92% 30.21 in 10.0 mi North 10.4 mph - N/A   Overcast
6:53 AM 43.0 °F 36.0 °F 39.9 °F 89% 30.21 in 10.0 mi NNE 13.8 mph - 0.00 in   Overcast
7:53 AM 43.0 °F 37.2 °F 39.9 °F 89% 30.24 in 9.0 mi NNE 10.4 mph - N/A   Overcast
8:53 AM 43.0 °F 38.2 °F 39.9 °F 89% 30.28 in 9.0 mi North 8.1 mph 18.4 mph 0.00 in   Overcast
9:44 AM 42.8 °F 37.5 °F 39.2 °F 87% 30.30 in 8.0 mi North 9.2 mph 20.7 mph N/A   Overcast
9:53 AM 43.0 °F 37.2 °F 39.0 °F 86% 30.31 in 8.0 mi North 10.4 mph - N/A   Overcast
10:53 AM 44.1 °F 40.8 °F 39.9 °F 85% 30.32 in 9.0 mi North 5.8 mph - N/A   Overcast
11:07 AM 42.8 °F 37.5 °F 39.2 °F 87% 30.31 in 9.0 mi North 9.2 mph - N/A   Overcast
11:53 AM 45.0 °F 38.9 °F 39.9 °F 82% 30.30 in 8.0 mi North 12.7 mph 23.0 mph N/A   Overcast
12:04 PM 44.6 °F 37.4 °F 39.2 °F 81% 30.29 in 8.0 mi North 16.1 mph 21.9 mph N/A   Overcast
12:35 PM 46.4 °F 39.5 °F 39.2 °F 76% 30.28 in 8.0 mi NNE 17.3 mph 23.0 mph N/A   Overcast
12:53 PM 46.9 °F - 39.9 °F 77% 30.27 in 10.0 mi North 13.8 mph 20.7 mph N/A   Overcast
1:51 PM 46.4 °F 40.7 °F 42.8 °F 87% 30.25 in 7.0 mi NNE 12.7 mph - N/A   Overcast
1:53 PM 46.9 °F - 42.1 °F 83% 30.25 in 7.0 mi North 12.7 mph - N/A   Overcast
2:53 PM 48.9 °F - 43.0 °F 80% 30.26 in 10.0 mi NNE 16.1 mph 21.9 mph N/A   Overcast
3:47 PM 50.0 °F - 42.8 °F 76% 30.25 in 10.0 mi North 10.4 mph - N/A   Scattered Clouds
3:53 PM 50.0 °F - 43.0 °F 77% 30.26 in 10.0 mi North 10.4 mph 18.4 mph N/A   Scattered Clouds
4:53 PM 50.0 °F - 43.0 °F 77% 30.26 in 10.0 mi North 5.8 mph - N/A   Clear
6:53 PM 46.9 °F - 42.1 °F 83% 30.30 in 10.0 mi North 4.6 mph - N/A   Clear
7:53 PM 46.0 °F 43.1 °F 42.1 °F 86% 30.31 in 10.0 mi North 5.8 mph - N/A   Clear
8:53 PM 45.0 °F 42.6 °F 41.0 °F 86% 30.32 in 10.0 mi North 4.6 mph - N/A   Clear
9:53 PM 43.0 °F 41.3 °F 39.9 °F 89% 30.32 in 10.0 mi NNE 3.5 mph - N/A   Clear
10:53 PM 43.0 °F 39.5 °F 39.9 °F 89% 30.32 in 10.0 mi North 5.8 mph - N/A   Clear
11:53 PM 42.1 °F 38.4 °F 39.0 °F 89% 30.31 in 10.0 mi NNE 5.8 mph - N/A   Clear